Location: Maddington
(51.2000°N, 1.9167°W)
Time: 15:16:02
(UTC+00:00)

ATLAS 3B R/B - Pass Details

Date: 18 September 2020
Orbit: 1016 x 1179 km, 63.8° (Epoch: 04 October)

Event Time Altitude Azimuth Distance (km) Brightness Sun altitude
Rises 19:28:39 0° 307° (NW) 3,792 7.1 -12.3°
Reaches altitude 10° 19:31:30 10° 316° (NW) 2,855 6.0 -12.7°
Maximum altitude 19:37:38 36° 22° (NNE) 1,631 3.7 -13.6°
Enters shadow 19:42:49 15° 82° (E) 2,589 4.2 -14.4°
